Location: Unspecified
(0.0000°N, 0.0000°E)
Time: 14:53:20
(UTC+00:00)

STARLINK-36899 - Pass Details

Date: 04 March 2026
Orbit: 266 x 267 km, 53.2° (Epoch: 6 March)

Event Time Altitude Azimuth Distance (km) Brightness Sun altitude
Rises 19:01:35 0° 218° (SW) 1,836 6.0 -12.4°
Reaches altitude 10° 19:03:27 10° 222° (SW) 1,036 4.8 -12.9°
Maximum altitude 19:05:43 61° 303° (WNW) 296 1.5 -13.4°
Enters shadow 19:07:03 21° 20° (NNE) 656 2.8 -13.8°
